Location: Utrecht
(52.0907°N, 5.1214°E)
Time: 13:43:09
(UTC+02:00)

SPROUT - Pass Details

Date: 02 July 2022
Orbit: 588 x 598 km, 97.9° (Epoch: 18 August)

Event Time Altitude Azimuth Distance (km) Brightness Sun altitude
Exits shadow 00:51:35 - 110° (ESE) 2,291 ? -14.0°
Reaches altitude 10° 00:52:48 10° 99° (E) 1,920 ? -14.0°
Maximum altitude 00:55:33 17° 58° (ENE) 1,501 ? -14.1°
Drops below altitude 10° 00:58:18 10° 17° (NNE) 1,931 ? -14.2°
Sets 01:01:03 0° 357° (N) 2,839 ? -14.3°
